This is the latest recevied weather packets stored in our database for station/object KQ4KX. If no packets are shown the sender has not sent any weather packets the latest 10 day(s).
| Time | Temp. | Humidity | Pressure | Rain* | Wind** | Luminosity | Snow |
|---|---|---|---|---|---|---|---|
| 1788117505 | 33.33° C | 72% | 1016.4 hPa | 0 mm | - | - | - |
| 1788116875 | 33.89° C | 65% | 1016.5 hPa | 0 mm | - | - | - |
| 1788116744 | 33.89° C | 71% | 1016.4 hPa | 0 mm | - | - | - |
| 1788116545 | 33.89° C | 71% | 1016.4 hPa | 0 mm | - | - | - |
| 1788116413 | 33.33° C | 70% | 1016.6 hPa | 0 mm | - | - | - |
| 1788116215 | 33.33° C | 70% | 1016.6 hPa | 0 mm | - | - | - |
| 1788115615 | 33.33° C | 70% | 1016.8 hPa | 0 mm | - | - | - |
| 1788114025 | 33.33° C | 71% | 1017 hPa | 0 mm | - | - | - |
| 1788113725 | 33.33° C | 70% | 1017.1 hPa | 0 mm | - | - | - |
| 1788113395 | 33.33° C | 74% | 1017.2 hPa | 0 mm | - | - | - |
| 1788113311 | 32.78° C | 74% | 1017.3 hPa | 0 mm | - | - | - |
| 1788113095 | 32.78° C | 74% | 1017.3 hPa | 0 mm | - | - | - |
| 1788112765 | 32.78° C | 74% | 1017.2 hPa | 0 mm | - | - | - |
| 1788112727 | 25.56° C | 94% | 1017.6 hPa | 1.52 mm | - | - | - |
| 1788112435 | 32.78° C | 72% | 1017.3 hPa | 0 mm | - | - | - |
| 1788112135 | 32.78° C | 72% | 1017.3 hPa | 0 mm | - | - | - |
| 1788111505 | 32.22° C | 73% | 1017.5 hPa | 0 mm | - | - | - |
| 1788111387 | 32.22° C | 73% | 1017.6 hPa | 0 mm | - | - | - |
| 1788111175 | 32.22° C | 73% | 1017.6 hPa | 0 mm | - | - | - |
| 1788110875 | 32.22° C | 72% | 1017.8 hPa | 0 mm | - | - | - |
| 1788110544 | 32.78° C | 75% | 1017.8 hPa | 0 mm | - | - | - |
| 1788109616 | 32.22° C | 78% | 1018 hPa | 0 mm | - | - | - |
| 1788109315 | 32.22° C | 77% | 1018.1 hPa | 0 mm | - | - | - |
| 1788108654 | 32.22° C | 78% | 1018.2 hPa | 0 mm | - | - | - |
| 1788108355 | 31.67° C | 75% | 1018.3 hPa | 0 mm | - | - | - |
* Rain latest hour (hover to see other rain measurements)
** Current wind speed in m/s (hover to see current wind gust speed)